Time,TemperatureF,DewpointF,PressureIn,WindDirection,WindDirectionDegrees,WindSpeedMPH,WindSpeedGustMPH,Humidity,HourlyPrecipIn,Conditions,Clouds,dailyrainin,SoftwareType,DateUTC
2013-07-12 19:57:00,65.6,51.8,30.04,SW,214,0.0,1.0,61,0.00,,---,0.00,VWS V14.01,2013-07-13 02:57:00,
2013-07-12 20:02:00,65.4,51.2,30.04,SSW,211,0.0,3.0,60,0.00,,---,0.00,VWS V14.01,2013-07-13 03:02:00,
2013-07-12 20:08:00,65.1,50.9,30.04,SW,218,0.0,4.0,60,0.00,,---,0.00,VWS V14.01,2013-07-13 03:08:00,
2013-07-12 20:13:00,64.7,51.4,30.04,SW,234,1.0,6.0,62,0.00,,---,0.00,VWS V14.01,2013-07-13 03:13:00,
2013-07-12 20:18:00,64.3,51.9,30.04,SW,218,0.0,6.0,64,0.00,,---,0.00,VWS V14.01,2013-07-13 03:18:00,
2013-07-12 20:23:00,64.0,52.0,30.04,SW,227,0.0,6.0,65,0.00,,---,0.00,VWS V14.01,2013-07-13 03:23:00,
2013-07-12 20:28:00,63.9,52.3,30.04,SW,225,0.0,6.0,66,0.00,,---,0.00,VWS V14.01,2013-07-13 03:28:00,
2013-07-12 20:34:00,63.7,52.1,30.04,SW,223,0.0,2.0,66,0.00,,---,0.00,VWS V14.01,2013-07-13 03:34:00,
2013-07-12 20:39:00,63.6,52.0,30.04,SW,223,0.0,2.0,66,0.00,,---,0.00,VWS V14.01,2013-07-13 03:39:00,
2013-07-12 20:44:00,63.6,52.5,30.04,SW,222,0.0,2.0,67,0.00,,---,0.00,VWS V14.01,2013-07-13 03:44:00,
2013-07-12 20:49:00,63.4,52.3,30.05,SW,223,0.0,2.0,67,0.00,,---,0.00,VWS V14.01,2013-07-13 03:49:00,
2013-07-12 20:54:00,63.0,52.3,30.05,SW,222,0.0,2.0,68,0.00,,---,0.00,VWS V14.01,2013-07-13 03:54:00,
2013-07-12 20:59:00,62.5,51.8,30.05,SW,223,0.0,2.0,68,0.00,,---,0.00,VWS V14.01,2013-07-13 03:59:00,
2013-07-12 21:01:00,62.3,51.6,30.05,SW,223,0.0,0.0,68,0.00,,---,0.00,VWS V14.01,2013-07-13 04:01:00,
2013-07-12 21:02:00,62.2,51.9,30.05,SW,223,0.0,0.0,69,0.00,,---,0.00,VWS V14.01,2013-07-13 04:02:00,
2013-07-12 21:03:00,62.1,51.8,30.05,SW,223,0.0,0.0,69,0.00,,---,0.00,VWS V14.01,2013-07-13 04:03:00,
2013-07-12 21:08:00,61.8,51.5,30.05,SW,222,0.0,0.0,69,0.00,,---,0.00,VWS V14.01,2013-07-13 04:08:00,
2013-07-12 21:13:00,61.5,52.0,30.05,SW,223,0.0,0.0,71,0.00,,---,0.00,VWS V14.01,2013-07-13 04:13:00,
2013-07-12 21:18:00,61.2,51.7,30.05,SW,223,0.0,0.0,71,0.00,,---,0.00,VWS V14.01,2013-07-13 04:18:00,
2013-07-12 21:23:00,60.9,51.8,30.06,SW,223,0.0,0.0,72,0.00,,---,0.00,VWS V14.01,2013-07-13 04:23:00,
2013-07-12 21:29:00,60.5,51.4,30.06,SW,222,0.0,0.0,72,0.00,,---,0.00,VWS V14.01,2013-07-13 04:29:00,
2013-07-12 21:34:00,60.3,51.6,30.06,SW,223,0.0,0.0,73,0.00,,---,0.00,VWS V14.01,2013-07-13 04:34:00,
2013-07-12 21:39:00,60.2,51.5,30.06,SW,223,0.0,0.0,73,0.00,,---,0.00,VWS V14.01,2013-07-13 04:39:00,
2013-07-12 21:44:00,59.9,52.7,30.06,SW,223,0.0,0.0,77,0.00,,---,0.00,VWS V14.01,2013-07-13 04:44:00,
2013-07-12 21:49:00,59.6,51.7,30.06,SW,223,0.0,0.0,75,0.00,,---,0.00,VWS V14.01,2013-07-13 04:49:00,
2013-07-12 21:54:00,59.9,55.4,30.06,SW,222,0.0,0.0,85,0.00,,---,0.00,VWS V14.01,2013-07-13 04:54:00,
2013-07-12 21:59:00,60.0,52.1,30.06,SW,234,1.0,1.0,75,0.00,,---,0.00,VWS V14.01,2013-07-13 04:59:00,
2013-07-12 22:04:00,59.4,51.8,30.07,SW,234,0.0,0.0,76,0.00,,---,0.00,VWS V14.01,2013-07-13 05:04:00,
2013-07-12 22:09:00,59.0,52.2,30.07,SW,233,0.0,0.0,78,0.00,,---,0.00,VWS V14.01,2013-07-13 05:09:00,
2013-07-12 22:14:00,58.9,52.8,30.06,SW,233,0.0,0.0,80,0.00,,---,0.00,VWS V14.01,2013-07-13 05:14:00,
2013-07-12 22:19:00,58.6,52.8,30.06,SW,234,0.0,0.0,81,0.00,,---,0.00,VWS V14.01,2013-07-13 05:19:00,
2013-07-12 22:24:00,58.7,53.9,30.07,SW,234,0.0,0.0,84,0.00,,---,0.00,VWS V14.01,2013-07-13 05:24:00,
2013-07-12 22:29:00,58.8,54.0,30.07,SW,234,0.0,0.0,84,0.00,,---,0.00,VWS V14.01,2013-07-13 05:29:00,
2013-07-12 22:34:00,58.6,53.5,30.07,SW,234,0.0,0.0,83,0.00,,---,0.00,VWS V14.01,2013-07-13 05:34:00,
2013-07-12 22:39:00,58.5,52.7,30.07,SW,234,0.0,0.0,81,0.00,,---,0.00,VWS V14.01,2013-07-13 05:39:00,
2013-07-12 22:44:00,58.3,52.5,30.07,SW,234,0.0,0.0,81,0.00,,---,0.00,VWS V14.01,2013-07-13 05:44:00,
2013-07-12 22:49:00,58.2,51.7,30.07,SW,233,0.0,0.0,79,0.00,,---,0.00,VWS V14.01,2013-07-13 05:49:00,
2013-07-12 22:55:00,58.2,51.7,30.07,SW,234,0.0,1.0,79,0.00,,---,0.00,VWS V14.01,2013-07-13 05:55:00,
2013-07-12 23:00:00,58.1,52.0,30.07,SW,233,0.0,1.0,80,0.00,,---,0.00,VWS V14.01,2013-07-13 06:00:00,
2013-07-12 23:05:00,58.0,52.2,30.07,SW,233,0.0,0.0,81,0.00,,---,0.00,VWS V14.01,2013-07-13 06:05:00,
2013-07-12 23:10:00,57.9,51.8,30.08,SW,234,0.0,0.0,80,0.00,,---,0.00,VWS V14.01,2013-07-13 06:10:00,
2013-07-12 23:15:00,57.7,51.6,30.08,SW,233,0.0,0.0,80,0.00,,---,0.00,VWS V14.01,2013-07-13 06:15:00,
2013-07-12 23:20:00,57.6,51.8,30.08,SW,234,0.0,0.0,81,0.00,,---,0.00,VWS V14.01,2013-07-13 06:20:00,
2013-07-12 23:25:00,57.4,51.6,30.08,SW,233,0.0,0.0,81,0.00,,---,0.00,VWS V14.01,2013-07-13 06:25:00,
2013-07-12 23:30:00,57.2,51.4,30.08,SW,233,2.0,2.0,81,0.00,,---,0.00,VWS V14.01,2013-07-13 06:30:00,
2013-07-12 23:35:00,57.3,51.2,30.09,NNE,31,0.0,2.0,80,0.00,,---,0.00,VWS V14.01,2013-07-13 06:35:00,
2013-07-12 23:40:00,57.5,51.0,30.09,NE,43,2.0,2.0,79,0.00,,---,0.00,VWS V14.01,2013-07-13 06:40:00,
2013-07-12 23:45:00,57.6,51.1,30.09,NE,48,3.0,3.0,79,0.00,,---,0.00,VWS V14.01,2013-07-13 06:45:00,
2013-07-12 23:50:00,57.7,51.2,30.09,NE,49,1.0,3.0,79,0.00,,---,0.00,VWS V14.01,2013-07-13 06:50:00,
2013-07-12 23:55:00,57.6,50.8,30.09,NE,49,0.0,3.0,78,0.00,,---,0.00,VWS V14.01,2013-07-13 06:55:00,